Regional Weather Roundup
Issued by NWS Jackson, KY

Home | Current Version | Previous Version | Text Only | Print | Product List | Glossary On
Versions: 1 2 3 4 5 6 7 8 9 10 11 12 13 14 15 16 17 18 19 20 21 22 23 24 25 26
000
ASUS43 KJKL 281310
RWRJKL

EAST KENTUCKY HOURLY WEATHER ROUNDUP
NATIONAL WEATHER SERVICE JACKSON KY
800 AM EST TUE FEB 28 2017

NOTE: "FAIR" INDICATES FEW OR NO CLOUDS BELOW 12,000 FEET WITH
NO SIGNIFICANT WEATHER AND/OR OBSTRUCTIONS TO VISIBILITY.

* THESE REPORTS ARE NOT UNDER NWS QUALITY CONTROL AND MAY NOT
  REPORT WEATHER SUCH AS PRECIPITATION AND FOG.

KYZ079-080-083-085-087-088-110-112-115-119-120-281400
...EASTERN KENTUCKY...

CITY           SKY/WX    TMP DP  RH WIND       PRES   REMARKS
JACKSON        CLOUDY    49  40  71 S3        30.15F
LONDON         CLOUDY    48  42  80 SE3       30.14S
SOMERSET*      CLOUDY    52  46  82 S7        30.14S
MONTICELLO*    CLOUDY    55  49  80 E6        30.14R
WILLIAMSBURG*  CLOUDY    52  46  82 SE10      30.15R
MIDDLESBORO*   CLOUDY    46  36  67 E6        30.22R
HARLAN APT*    MOSUNNY   52  39  62 NE3       30.19S
PIKE CO APT*   PTSUNNY   53  40  63 SE5       30.17R
BIG SANDY APT* DRIZZLE   47  41  78 E3        30.17F
MOREHEAD APT*  LGT RAIN  46  41  81 S6        30.17R
ASHLAND*       CLOUDY    39  37  93 CALM      30.17R
$$

KYZ035-036-041-042-044-050-067-078-099-281400
...CENTRAL KENTUCKY...

CITY           SKY/WX    TMP DP  RH WIND       PRES   REMARKS
FLEMING/MASON* LGT RAIN  47  44  91 SE7       30.13F
DANVILLE*      CLOUDY    50  46  87 S5        30.10S
LEXINGTON      CLOUDY    51  47  86 S15       30.06F
FRANKFORT      CLOUDY    51  47  86 CALM      30.05F
LOUISVILLE     LGT RAIN  52  48  86 S13       30.04F
LEBANON*       CLOUDY    54  48  82 S13G20    30.07F
GLASGOW*       CLOUDY    54  49  83 S9        30.08F
BOWLING GREEN  CLOUDY    57  52  83 S20G25    30.05F
$$

KYZ091>093-OHZ055-061-077-WVZ005-015-034-035-042-281400
...SOUTHERN OHIO/WEST VIRGINIA...

CITY           SKY/WX    TMP DP  RH WIND       PRES   REMARKS
COVINGTON      LGT RAIN  47  46  97 SE8       30.06F FOG
COLUMBUS       CLOUDY    47  38  71 SE8       30.14F
DAYTON         LGT RAIN  44  42  93 S8        30.08F
WILMINGTON     LGT RAIN  45  43  93 S9        30.10F
HUNTINGTON     CLOUDY    39  36  89 E6        30.15F WCI  35
CHARLESTON     CLOUDY    39  36  89 SE3       30.21R
PINEVILLE*       N/A     38  33  84 MISG      30.27R
BECKLEY        CLOUDY    47  32  56 SE9       30.23R
BLUEFIELD      PTSUNNY   47  33  58 VRB5      30.24S
LOGAN CO APT*  CLOUDY    52  37  58 CALM      30.20R
$$

VAZ002-007-008-TNZ017-027-036-066-071-281400
...SOUTHWEST VIRGINIA/EAST TENNESSEE...

CITY           SKY/WX    TMP DP  RH WIND       PRES   REMARKS
WISE*          MOSUNNY   52  37  58 S9        30.22S
JONESVILLE*      N/A     36  34  93 CALM      30.25R
ABINGDON*      CLOUDY    47  36  66 E6        30.24R
BRISTOL        MOSUNNY   42  37  82 N3        30.24S
MORRISTOWN*    SUNNY     39  37  93 CALM      30.22S
SEVIERVILLE*   SUNNY     34  32  93 CALM      30.24R
KNOXVILLE      CLOUDY    41  37  86 CALM      30.22S
LAFOLLETTE*    PTSUNNY   41  39  93 NE5       30.22S
OAK RIDGE      CLOUDY    46  41  82 CALM      30.23F
CROSSVILLE     CLOUDY    52  50  93 S10G18    30.18S
NASHVILLE      CLOUDY    58  52  80 S16       30.09F
$$

...KEY TO REMARKS...
VSB - VISIBILITY IN MILES
WCI - WIND CHILL INDEX
HX  - HEAT INDEX

$$




USA.gov is the U.S. government's official web portal to all federal, state and local government web resources and services.